• In Hungary
  • List of Countries
  • For 7 days
  • Water Temperature
  • Satellite Maps
  • Weather Map
  • News
  • Weather Widgets
  • user-avatar
    Login

    Hourly Weather Makadi Bey

    Today, 18 January, Thursday

    Time Temperature Precipitation Wind Pressure Humidity
    00:00 +10°C° 0 mm 2 mps 707 mmHg 52%
    01:00 +10°C° 0 mm 2 mps 707 mmHg 53%
    02:00 +9°C° 0 mm 2 mps 706 mmHg 56%
    03:00 +9°C° 0 mm 2 mps 706 mmHg 58%
    04:00 +9°C° 0 mm 2 mps 706 mmHg 60%
    05:00 +8°C° 0 mm 2 mps 706 mmHg 62%
    06:00 +9°C° 0 mm 2 mps 707 mmHg 58%
    07:00 +10°C° 0 mm 2 mps 707 mmHg 54%
    08:00 +13°C° 0 mm 2 mps 707 mmHg 52%
    09:00 +14°C° 0 mm 2 mps 707 mmHg 47%
    10:00 +16°C° 0 mm 2 mps 708 mmHg 41%
    11:00 +17°C° 0 mm 2 mps 708 mmHg 36%
    12:00 +18°C° 0 mm 3 mps 708 mmHg 32%
    13:00 +19°C° 0 mm 3 mps 707 mmHg 28%
    14:00 +20°C° 0 mm 4 mps 707 mmHg 24%
    15:00 +20°C° 0 mm 4 mps 707 mmHg 25%
    16:00 +19°C° 0 mm 4 mps 707 mmHg 26%
    17:00 +18°C° 0 mm 4 mps 706 mmHg 28%
    18:00 +17°C° 0 mm 4 mps 706 mmHg 30%
    19:00 +14°C° 0 mm 4 mps 707 mmHg 33%
    20:00 +13°C° 0 mm 4 mps 707 mmHg 35%
    21:00 +12°C° 0 mm 4 mps 707 mmHg 36%
    22:00 +12°C° 0 mm 4 mps 707 mmHg 37%
    23:00 +11°C° 0 mm 4 mps 706 mmHg 38%

    Tomorrow, 19 January, Friday

    Time Temperature Precipitation Wind Pressure Humidity
    00:00 +11°C° 0 mm 4 mps 706 mmHg 38%
    01:00 +10°C° 0 mm 4 mps 706 mmHg 39%
    02:00 +10°C° 0 mm 4 mps 706 mmHg 39%
    03:00 +8°C° 0 mm 4 mps 706 mmHg 41%
    04:00 +8°C° 0 mm 4 mps 706 mmHg 42%
    05:00 +7°C° 0 mm 4 mps 706 mmHg 43%
    06:00 +7°C° 0 mm 4 mps 707 mmHg 47%
    07:00 +8°C° 0 mm 5 mps 707 mmHg 51%
    08:00 +8°C° 0 mm 5 mps 707 mmHg 54%
    09:00 +9°C° 0 mm 5 mps 708 mmHg 48%
    10:00 +12°C° 0 mm 5 mps 708 mmHg 42%
    11:00 +13°C° 0 mm 6 mps 709 mmHg 35%
    12:00 +14°C° 0 mm 6 mps 709 mmHg 33%
    13:00 +15°C° 0 mm 6 mps 708 mmHg 30%
    14:00 +15°C° 0 mm 6 mps 708 mmHg 27%
    15:00 +15°C° 0 mm 6 mps 708 mmHg 29%
    16:00 +14°C° 0 mm 6 mps 708 mmHg 31%
    17:00 +14°C° 0 mm 6 mps 709 mmHg 33%
    18:00 +13°C° 0 mm 5 mps 709 mmHg 38%
    19:00 +11°C° 0 mm 4 mps 709 mmHg 43%
    20:00 +10°C° 0 mm 3 mps 710 mmHg 48%
    21:00 +10°C° 0 mm 3 mps 710 mmHg 51%
    22:00 +9°C° 0 mm 3 mps 710 mmHg 54%
    23:00 +8°C° 0 mm 2 mps 710 mmHg 57%

    Day after tomorrow, 20 January, Saturday

    Time Temperature Precipitation Wind Pressure Humidity
    00:00 +8°C° 0 mm 2 mps 710 mmHg 60%
    01:00 +8°C° 0 mm 2 mps 710 mmHg 63%
    02:00 +7°C° 0 mm 2 mps 710 mmHg 66%
    03:00 +7°C° 0 mm 2 mps 710 mmHg 67%
    04:00 +6°C° 0 mm 2 mps 709 mmHg 69%
    05:00 +6°C° 0 mm 2 mps 709 mmHg 71%
    06:00 +7°C° 0 mm 2 mps 710 mmHg 66%
    07:00 +8°C° 0 mm 2 mps 711 mmHg 60%
    08:00 +9°C° 0 mm 2 mps 711 mmHg 55%
    09:00 +12°C° 0 mm 2 mps 711 mmHg 48%
    10:00 +14°C° 0 mm 2 mps 711 mmHg 41%
    11:00 +15°C° 0 mm 2 mps 712 mmHg 34%
    12:00 +16°C° 0 mm 2 mps 711 mmHg 32%
    13:00 +17°C° 0 mm 2 mps 710 mmHg 30%
    14:00 +18°C° 0 mm 2 mps 710 mmHg 28%
    15:00 +17°C° 0 mm 2 mps 710 mmHg 32%
    16:00 +17°C° 0 mm 2 mps 710 mmHg 35%
    17:00 +16°C° 0 mm 2 mps 710 mmHg 39%
    18:00 +15°C° 0 mm 2 mps 710 mmHg 45%
    19:00 +13°C° 0 mm 1 mps 710 mmHg 51%
    20:00 +12°C° 0 mm 1 mps 710 mmHg 58%
    21:00 +11°C° 0 mm 1 mps 710 mmHg 60%
    22:00 +11°C° 0 mm 1 mps 710 mmHg 62%
    23:00 +11°C° 0 mm 1 mps 710 mmHg 64%

    21 January, Sunday

    Time Temperature Precipitation Wind Pressure Humidity
    00:00 +10°C° 0 mm 1 mps 709 mmHg 63%
    01:00 +10°C° 0 mm 1 mps 709 mmHg 62%
    02:00 +10°C° 0 mm 1 mps 708 mmHg 61%
    03:00 +9°C° 0 mm 1 mps 708 mmHg 61%
    04:00 +9°C° 0 mm 1 mps 708 mmHg 61%
    05:00 +9°C° 0 mm 1 mps 708 mmHg 62%
    06:00 +10°C° 0 mm 1 mps 708 mmHg 58%
    07:00 +11°C° 0 mm 1 mps 708 mmHg 54%
    08:00 +13°C° 0 mm 2 mps 709 mmHg 50%
    09:00 +15°C° 0 mm 2 mps 709 mmHg 44%
    10:00 +17°C° 0 mm 2 mps 709 mmHg 39%
    11:00 +19°C° 0 mm 2 mps 709 mmHg 33%
    12:00 +20°C° 0 mm 2 mps 708 mmHg 30%
    13:00 +21°C° 0 mm 3 mps 708 mmHg 27%
    14:00 +22°C° 0 mm 3 mps 707 mmHg 25%
    15:00 +21°C° 0 mm 3 mps 707 mmHg 26%
    16:00 +20°C° 0 mm 3 mps 707 mmHg 28%
    17:00 +20°C° 0 mm 3 mps 707 mmHg 30%
    18:00 +18°C° 0 mm 2 mps 707 mmHg 34%
    19:00 +16°C° 0 mm 2 mps 707 mmHg 39%
    20:00 +15°C° 0 mm 1 mps 707 mmHg 43%
    21:00 +14°C° 0 mm 1 mps 707 mmHg 43%
    22:00 +14°C° 0 mm 1 mps 707 mmHg 43%
    23:00 +13°C° 0 mm 1 mps 706 mmHg 43%

    22 January, Monday

    Time Temperature Precipitation Wind Pressure Humidity
    00:00 +13°C° 0 mm 1 mps 706 mmHg 42%
    01:00 +13°C° 0 mm 1 mps 706 mmHg 41%
    02:00 +12°C° 0 mm 1 mps 705 mmHg 40%
    03:00 +12°C° 0 mm 1 mps 705 mmHg 39%
    04:00 +12°C° 0 mm 1 mps 705 mmHg 38%
    05:00 +11°C° 0 mm 1 mps 705 mmHg 38%
    06:00 +13°C° 0 mm 1 mps 705 mmHg 34%
    07:00 +14°C° 0 mm 1 mps 706 mmHg 31%
    08:00 +15°C° 0 mm 2 mps 706 mmHg 27%
    09:00 +17°C° 0 mm 2 mps 706 mmHg 24%
    10:00 +19°C° 0 mm 3 mps 707 mmHg 20%
    11:00 +20°C° 0 mm 4 mps 707 mmHg 16%
    12:00 +21°C° 0 mm 4 mps 706 mmHg 15%
    13:00 +21°C° 0 mm 5 mps 706 mmHg 14%
    14:00 +22°C° 0 mm 6 mps 705 mmHg 13%
    15:00 +21°C° 0 mm 5 mps 705 mmHg 15%
    16:00 +20°C° 0 mm 5 mps 705 mmHg 16%
    17:00 +19°C° 0 mm 5 mps 705 mmHg 18%
    18:00 +17°C° 0 mm 5 mps 705 mmHg 22%
    19:00 +15°C° 0 mm 4 mps 706 mmHg 27%
    20:00 +14°C° 0 mm 4 mps 706 mmHg 31%
    21:00 +13°C° 0 mm 4 mps 706 mmHg 37%
    22:00 +13°C° 0 mm 5 mps 706 mmHg 42%
    23:00 +12°C° 0 mm 5 mps 706 mmHg 48%

    23 January, Tuesday

    Time Temperature Precipitation Wind Pressure Humidity
    00:00 +11°C° 0 mm 4 mps 706 mmHg 51%
    01:00 +11°C° 0 mm 4 mps 705 mmHg 53%
    02:00 +10°C° 0 mm 4 mps 705 mmHg 56%
    03:00 +10°C° 0 mm 4 mps 705 mmHg 59%
    04:00 +8°C° 0 mm 4 mps 705 mmHg 62%
    05:00 +9°C° 0 mm 3 mps 706 mmHg 65%
    06:00 +8°C° 0 mm 4 mps 706 mmHg 62%
    07:00 +8°C° 0 mm 4 mps 706 mmHg 59%
    08:00 +10°C° 0 mm 4 mps 707 mmHg 56%
    09:00 +10°C° 0 mm 5 mps 707 mmHg 49%
    10:00 +12°C° 0 mm 5 mps 707 mmHg 42%
    11:00 +14°C° 0 mm 6 mps 707 mmHg 35%
    12:00 +14°C° 0 mm 6 mps 707 mmHg 33%
    13:00 +15°C° 0 mm 6 mps 706 mmHg 31%
    14:00 +16°C° 0 mm 7 mps 706 mmHg 29%
    15:00 +15°C° 0 mm 6 mps 706 mmHg 29%
    16:00 +15°C° 0 mm 6 mps 706 mmHg 30%
    17:00 +14°C° 0 mm 6 mps 706 mmHg 31%
    18:00 +13°C° 0 mm 5 mps 706 mmHg 32%
    19:00 +12°C° 0 mm 5 mps 706 mmHg 34%
    20:00 +10°C° 0 mm 5 mps 707 mmHg 36%
    21:00 +10°C° 0 mm 4 mps 707 mmHg 38%
    22:00 +8°C° 0 mm 4 mps 706 mmHg 40%
    23:00 +8°C° 0 mm 4 mps 706 mmHg 42%
    Show more